Ainsworth, NE

12:33 PM CDT on October 20, 2019 (GMT -0500)
Ainsworth Municipal

Weather History for KANW - August, 2019

Change the Weather History Date:

Tuesday, August 20, 2019

  Actual Average Record
Temperature  
Mean Temperature 74 °F -  
Max Temperature 84 °F 83 °F 95 °F (2003)
Min Temperature 65 °F 59 °F 47 °F (2015)
Cooling Degree Days 10    
Growing Degree Days 24 (Base 50)    
Moisture  
Dew Point 68 °F    
Average Humidity 81    
Maximum Humidity 100    
Minimum Humidity 50    
Precipitation  
Precipitation 0.00 in - - ()
Sea Level Pressure  
Sea Level Pressure 30.04 in    
Wind  
Wind Speed 7 mph ()    
Max Wind Speed 18 mph    
Max Gust Speed 29 mph    
Visibility 8.7 miles    
Events Thunderstorm    
Averages and records for this station are not official NWS values.
T = Trace of Precipitation, MM = Missing Value Source: Averaged Metar Reports

Daily Weather History Graph

Daily Weather History Graph

Search for Another Location

Airport or City:

Astronomy

Aug. 20, 2019 Rise Set
Actual Time 6:51 AM CDT 8:34 PM CDT
Civil Twilight 6:21 AM CDT 9:03 PM CDT
Nautical Twilight 5:45 AM CDT 9:40 PM CDT
Astronomical Twilight 5:06 AM CDT 10:19 PM CDT
Moon 11:17 PM CDT 11:37 AM CDT
Length of Visible Light 14h 42m
Length of Day
13h 42m
Waning Gibbous, 77% of the Moon is Illuminated
Aug 20
Waning Gibbous
Aug 23
Last Quarter
Aug 30
New
Sep 5
First Quarter
Sep 13
Full

Hourly Weather History & Observations

Time (CDT) Temp. Heat Index Dew Point Humidity Pressure Visibility Wind Dir Wind Speed Gust Speed Precip Events Conditions
12:15 AM 73.4 °F - 73.4 °F 100% 29.94 in 10.0 mi SSW 8.1 mph - N/A   Clear
12:35 AM 73.6 °F - 73.6 °F 100% 29.94 in 10.0 mi SW 8.1 mph - N/A   Clear
12:55 AM 72.9 °F - 72.9 °F 100% 29.94 in 10.0 mi WSW 5.8 mph - N/A   Clear
1:15 AM 71.6 °F - 71.6 °F 100% 29.95 in 7.0 mi WSW 3.5 mph - N/A   Clear
1:35 AM 70.0 °F - 70.0 °F 100% 29.95 in 5.0 mi WSW 4.6 mph - N/A   Clear
1:55 AM 69.3 °F - 69.3 °F 100% 29.95 in 5.0 mi West 3.5 mph - N/A   Clear
2:15 AM 68.2 °F - 68.2 °F 100% 29.96 in 4.0 mi SW 3.5 mph - N/A   Clear
2:35 AM 68.5 °F - 68.5 °F 100% 29.96 in 4.0 mi WSW 3.5 mph - N/A   Clear
2:55 AM 68.9 °F - 68.9 °F 100% 29.96 in 5.0 mi WSW 3.5 mph - N/A   Clear
3:15 AM 68.9 °F - 68.9 °F 100% 29.96 in 5.0 mi WSW 4.6 mph - N/A   Clear
3:35 AM 68.4 °F - 68.4 °F 100% 29.96 in 7.0 mi West 3.5 mph - N/A   Clear
3:55 AM 67.3 °F - 67.3 °F 100% 29.96 in 5.0 mi West 5.8 mph - N/A   Clear
4:15 AM 68.0 °F - 68.0 °F 100% 29.96 in 7.0 mi WSW 5.8 mph - N/A   Clear
4:35 AM 68.0 °F - 68.0 °F 100% 29.96 in 7.0 mi WSW 4.6 mph - N/A   Clear
5:15 AM 67.1 °F - 67.1 °F 100% 29.96 in 7.0 mi WSW 3.5 mph - N/A   Clear
5:35 AM 66.4 °F - 66.4 °F 100% 29.96 in 5.0 mi West 4.6 mph - N/A   Clear
5:55 AM 65.7 °F - 65.7 °F 100% 29.96 in 5.0 mi West 4.6 mph - N/A   Clear
6:16 AM 66.2 °F - 66.2 °F 100% 29.96 in 7.0 mi WNW 6.9 mph - N/A   Clear
6:55 AM 66.9 °F - 66.9 °F 100% 29.97 in 5.0 mi NNW 5.8 mph - N/A   Clear
7:15 AM 67.5 °F - 67.5 °F 100% 29.97 in 5.0 mi NNW 3.5 mph - N/A   Clear
7:35 AM 68.0 °F - 68.0 °F 100% 29.98 in 5.0 mi NNW 5.8 mph - N/A   Clear
7:55 AM 69.3 °F - 69.3 °F 100% 29.98 in 5.0 mi NNW 5.8 mph - N/A   Clear
8:20 AM 71.2 °F - 71.2 °F 100% 29.99 in 7.0 mi North 3.5 mph - N/A   Clear
8:38 AM 73.4 °F - 73.4 °F 100% 29.99 in 7.0 mi North 8.1 mph - N/A   Clear
8:57 AM 75.2 °F - 73.4 °F 94% 30.01 in 10.0 mi North 11.5 mph - N/A   Clear
9:15 AM 75.4 °F - 71.6 °F 88% 30.01 in 10.0 mi North 11.5 mph - N/A   Clear
9:35 AM 76.8 °F - 72.0 °F 85% 30.02 in 10.0 mi NNE 11.5 mph - N/A   Clear
9:55 AM 78.3 °F - 70.2 °F 76% 30.02 in 10.0 mi NE 12.7 mph - N/A   Clear
10:15 AM 79.2 °F - 68.5 °F 70% 30.03 in 10.0 mi NE 13.8 mph 18.4 mph N/A   Clear
10:35 AM 79.9 °F - 68.9 °F 69% 30.04 in 10.0 mi NE 15.0 mph - N/A   Clear
10:55 AM 80.8 °F 83.9 °F 69.3 °F 68% 30.05 in 10.0 mi NE 15.0 mph 20.7 mph N/A   Clear
11:15 AM 81.5 °F 84.4 °F 68.4 °F 64% 30.06 in 10.0 mi ENE 17.3 mph 23.0 mph N/A   Clear
11:35 AM 82.4 °F 85.2 °F 67.8 °F 61% 30.05 in 10.0 mi ENE 15.0 mph 21.9 mph N/A   Clear
11:55 AM 81.1 °F 83.4 °F 66.4 °F 61% 30.07 in 10.0 mi ENE 15.0 mph 23.0 mph N/A   Clear
12:15 PM 80.8 °F 82.6 °F 65.5 °F 59% 30.07 in 10.0 mi NE 15.0 mph 19.6 mph N/A   Clear
12:35 PM 82.9 °F 84.8 °F 65.1 °F 55% 30.08 in 10.0 mi ENE 17.3 mph 23.0 mph N/A   Clear
12:55 PM 82.8 °F 84.0 °F 63.3 °F 52% 30.07 in 10.0 mi ENE 17.3 mph 28.8 mph N/A   Clear
1:15 PM 83.3 °F 84.8 °F 64.6 °F 53% 30.07 in 10.0 mi ENE 17.3 mph 25.3 mph N/A   Clear
1:35 PM 83.8 °F 86.0 °F 66.2 °F 55% 30.08 in 10.0 mi ENE 11.5 mph 18.4 mph N/A   Clear
1:55 PM 83.8 °F 85.8 °F 65.5 °F 54% 30.08 in 10.0 mi ENE 16.1 mph 23.0 mph N/A   Clear
2:15 PM 83.5 °F 85.5 °F 66.0 °F 55% 30.07 in 10.0 mi East 13.8 mph 18.4 mph N/A   Clear
2:35 PM 83.5 °F 84.5 °F 62.8 °F 50% 30.08 in 10.0 mi ENE 9.2 mph - N/A   Clear
2:55 PM 84.6 °F 86.1 °F 64.4 °F 51% 30.10 in 10.0 mi East 9.2 mph 16.1 mph N/A Thunderstorm Clear
3:15 PM 81.1 °F 82.7 °F 64.2 °F 56% 30.10 in 10.0 mi NE 6.9 mph - N/A   Clear
3:35 PM 78.1 °F - 64.8 °F 63% 30.09 in 10.0 mi ENE 12.7 mph - N/A Thunderstorm Thunderstorm
3:55 PM 82.2 °F 84.7 °F 66.9 °F 60% 30.05 in 10.0 mi East 18.4 mph - N/A Thunderstorm Thunderstorm
4:15 PM 82.6 °F 84.9 °F 66.6 °F 58% 30.08 in 10.0 mi ENE 11.5 mph - N/A   Clear
4:35 PM 79.3 °F - 65.7 °F 63% 30.09 in 10.0 mi NE 11.5 mph - N/A   Clear
4:55 PM 80.4 °F 82.2 °F 65.1 °F 59% 30.08 in 10.0 mi ENE 12.7 mph - N/A   Clear
5:15 PM 81.0 °F 83.4 °F 67.1 °F 63% 30.08 in 10.0 mi East 9.2 mph 16.1 mph N/A   Clear
5:35 PM 80.4 °F 83.0 °F 67.5 °F 65% 30.08 in 10.0 mi East 6.9 mph - N/A   Clear
5:50 PM 79.7 °F - 66.6 °F 64% 30.08 in 10.0 mi ENE 6.9 mph - N/A   Clear
6:15 PM 79.3 °F - 66.9 °F 66% 30.08 in 10.0 mi ENE 8.1 mph - N/A   Clear
6:35 PM 79.3 °F - 67.5 °F 67% 30.09 in 10.0 mi NE 10.4 mph - N/A   Clear
6:55 PM 78.1 °F - 67.5 °F 70% 30.08 in 10.0 mi NE 9.2 mph - N/A   Clear
7:15 PM 76.5 °F - 67.1 °F 73% 30.09 in 10.0 mi NE 5.8 mph - N/A   Clear
7:35 PM 75.7 °F - 66.0 °F 72% 30.08 in 10.0 mi NE 6.9 mph - N/A   Clear
7:55 PM 74.3 °F - 65.3 °F 73% 30.09 in 10.0 mi NE 8.1 mph - N/A   Scattered Clouds
8:15 PM 73.2 °F - 64.2 °F 73% 30.10 in 10.0 mi NE 6.9 mph - N/A   Scattered Clouds
8:35 PM 71.8 °F - 65.5 °F 80% 30.10 in 10.0 mi ENE 8.1 mph - N/A   Clear
8:55 PM 71.1 °F - 65.1 °F 81% 30.11 in 10.0 mi NNE 3.5 mph - N/A   Clear
9:15 PM 69.4 °F - 65.8 °F 88% 30.10 in 10.0 mi NE 5.8 mph - N/A   Clear
9:35 PM 68.9 °F - 66.4 °F 92% 30.10 in 10.0 mi NE 6.9 mph - N/A   Clear
9:55 PM 68.9 °F - 66.4 °F 92% 30.11 in 10.0 mi ENE 6.9 mph - N/A   Clear
10:15 PM 68.0 °F - 67.1 °F 97% 30.10 in 10.0 mi East 6.9 mph - N/A   Clear
10:35 PM 69.3 °F - 67.6 °F 95% 30.12 in 10.0 mi NE 6.9 mph - N/A   Clear
10:55 PM 68.2 °F - 68.0 °F 99% 30.12 in 10.0 mi NE 5.8 mph - N/A   Clear
11:15 PM 67.6 °F - 67.6 °F 100% 30.13 in 10.0 mi NE 5.8 mph - N/A   Clear
11:35 PM 68.0 °F - 68.0 °F 100% 30.13 in 10.0 mi NE 6.9 mph - N/A   Clear
11:55 PM 68.0 °F - 68.0 °F 100% 30.12 in 10.0 mi NE 8.1 mph - N/A   Clear